www.pogodaiklimat.ru
ПОГОДА в Коффивилле
Время
(UTC), дата
20:52 21.02
21:52 21.02
22:52 21.02
23:52 21.02
00:52 21.02
01:52 21.02
02:52 21.02
03:52 21.02
04:52 21.02
05:52 22.02
06:52 22.02
07:52 22.02
08:52 22.02
09:52 22.02
10:52 22.02
11:52 22.02
12:52 22.02
13:52 22.02
14:52 22.02
15:52 22.02
16:52 22.02
17:52 22.02
18:52 22.02
19:52 22.02
20:52 22.02
21:52 22.02
22:52 22.02
23:52 22.02
00:52 22.02
01:52 22.02
02:52 22.02
03:52 22.02
04:52 22.02
05:52 23.02
06:52 23.02
07:52 23.02
08:52 23.02
09:52 23.02
10:52 23.02
11:52 23.02
12:52 23.02
13:52 23.02
14:52 23.02
15:52 23.02
16:52 23.02
17:52 23.02
18:52 23.02
19:52 23.02
Ветер
(напр.,м/с)
Видим. Явления Облачность Т
(С)
Тd
(С)
f
(%)
Тe
(С)
Тes
(С)
Комфортность P
(гПа)
Po
(гПа)
Тmin
(С)
Tmax
(С)
R
(мм)
R24
(мм)
S
(см)
Ю 4 16 км ясно +7.2 -10.0 28 +4 +7 1033.6 1005.0
Ю 4 16 км ясно +6.7 -11.1 27 +3 +5 1032.6 1004.0
Ю 4 16 км ясно +4.4 -9.4 36 +1 +1 1032.1 1003.7 +2.2 +7.2
Ю 3 16 км ясно +1.1 -9.4 45 -3 -3 1032.0 1003.0
Ю 3 16 км ясно 0.0 -9.4 49 -4 -4 1031.7 1003.0
Ю 4 16 км ясно -1.1 -8.9 55 -6 -6 1031.2 1002.7
Ю 2 16 км ясно -1.7 -8.9 58 -6 -6 1031.4 1003.0
Ю 3 16 км ясно -1.7 -9.4 56 -6 -6 1030.5 1002.0
Ю 3 16 км ясно -2.2 -9.4 58 -7 -7 1029.9 1001.4 -3.3 +4.4
Ю 3 16 км ясно -2.2 -8.9 60 -7 -7 1029.4 1001.0
Ю 4 16 км ясно -2.2 -8.3 63 -8 -8 1029.0 1000.7
ЮВ 3 16 км ясно -2.2 -7.8 65 -7 -7 1028.2 999.7
ЮВ 1 16 км ясно -2.8 -7.8 68 -6 -6 1027.6 999.4
ЮВ 3 16 км ясно -2.8 -6.7 74 -8 -8 1027.8 999.4
Ю 3 16 км ясно -1.7 -6.7 69 -7 -7 1027.3 999.1 -3.9 -1.1
Ю 3 16 км ясно -1.1 -6.1 69 -6 -6 1027.1 998.7
Ю 4 16 км ясно +0.6 -5.6 63 -5 -5 1027.2 998.7
Ю 6
{10}
16 км ясно +3.9 -3.9 57 -1 -1 1027.3 999.1
Ю 7
{11}
16 км ясно +6.7 -3.3 49 +2 +3 1026.8 998.7
Ю 7
{12}
16 км ясно +8.3 -2.8 45 +4 +5 1026.0 998.1
Ю 8
{11}
16 км ясно +10.0 -2.2 42 +6 +7 1025.2 997.1 -1.7 +10.6
Ю 10
{13}
16 км 2/2 1650 м +11.7 -1.7 39 +8 +8 1023.6 995.8
Ю 7
{11}
16 км ясно +13.3 -1.1 37 +11 +12 1021.8 993.8
Ю 8
{13}
16 км ясно +13.9 -1.1 36 +11 +12 1020.6 992.8
Ю 8
{13}
16 км ясно +13.9 -1.1 36 +12 +12 1020.2 992.5
Ю 8
{12}
16 км ясно +12.8 -1.1 38 +10 +10 1019.8 992.1
Ю 6 16 км ясно +11.1 -0.6 44 +8 +9 1019.5 991.8 +10.6 +13.9
Ю 6 16 км ясно +10.6 -0.6 46 +7 +7 1019.7 991.8
Ю 4 16 км ясно +9.4 -0.6 50 +7 +7 1019.8 992.1
Ю 5 16 км ясно +8.9 -0.6 51 +6 +6 1019.4 991.8
Ю 4 16 км ясно +8.3 -0.6 53 +5 +5 1019.7 991.8
Ю 6 16 км ясно +8.9 +0.6 56 +5 +5 1019.4 991.8
Ю 4 16 км ясно +9.4 +0.6 54 +6 +6 1018.8 991.1 +8.3 +11.1
Ю 6 16 км ясно +9.4 +1.1 56 +6 +6 1018.5 991.1
Ю 4 16 км 2/0 3600 м
[средняя]
+8.9 +2.2 63 +6 +6 1018.4 990.8
Ю 6 16 км 8/0 3300 м
[средняя]
+8.3 +2.8 68 +4 +4 1018.0 990.5
Ю 6 16 км 10/0 3300 м
[средняя]
+7.2 +3.3 76 +3 +3 1017.1 989.5
Ю 6 16 км слабый дождь 10/0 2850 м
[средняя]
+6.7 +3.3 79 +2 +2 1016.9 989.5
Ю 4 16 км слабый дождь 10/0 2550 м
[средняя]
+6.7 +3.3 79 +3 +3 1017.0 989.5 +6.7 +9.4
Ю 4 16 км 5/0 3000 м
[средняя]
+6.1 +2.8 79 +2 +2 1016.5 988.8
Ю 4 16 км 10/0 3000 м
[средняя]
+6.7 +3.3 79 +3 +3 1016.7 989.2
0 16 км 8/2 1380 м
[средняя]
+7.8 +3.3 73 +7 +8 1018.1 990.5
Ю 4 16 км 8/8 1260 м
[средняя]
+8.3 +3.9 74 +5 +5 1017.3 989.8
Ю 5 16 км 10/10 1290 м +8.9 +3.9 71 +5 +5 1017.4 989.8
Ю 4 16 км 10/10 1350 м +9.4 +4.4 71 +6 +6 1016.7 989.2 +6.1 +10.0
Ю 6 16 км 10/10 1140 м +9.4 +5.0 74 +6 +6 1015.7 988.2
Ю 4 16 км 10/5 1050 м
[средняя]
+8.9 +6.1 83 +6 +7 1014.7 987.2
ЮВ 3 8 км слабый дождь, дымка 10/10 1650 м +8.9 +7.2 89 +6 +6 1014.2 986.9
Местоположение метеостанции Coffeyville Municipal Airport: широта 37.0911 долгота -95.5664 высота над уровнем моря 229 м.
В архиве по умолчанию представлена погода в Коффивилле за последние 1-2 суток. Обновление информации о фактической погоде в базе происходит ежечасно! Архивные данные за месяц целиком и за предыдущие месяцы Вы можете получить, выбрав интересующий диапазон дат из раскрывающегося списка и нажав кнопку "Ввод!".
Внимание! Архив погоды МЕТАР в базе сайта по станциям, не включенным в климатический монитор, хранится не более 60 дней. Нет смысла пытаться выбрать более раннюю дату.
*Определитесь, кто Вы:
Внимание! Время в таблицах - всемирное. Для получения местного времени необходимо прибавить поправку, которая равна ч.
Смотрите также архив погоды в соседних городах и на ближайших метеорологических станциях:
Партнеры нашего сайта:      
Пояснения к столбцам:
  • Ветер - указаны скорость ветра в м/с - средняя за 10 мин, порывы в срок и между сроками (в фигурных скобках) и направление, откуда дует ветер: С - северный,
  • СВ - северо-восточный, В - восточный, ЮВ - юго-восточный, Ю - южный, ЮЗ - юго-западный, З - западный, СЗ - северо-западный.
  • Видимость - горизонтальная дальность видимости в метрах или километрах. При видимости от 1 до 10 км при отсутствии осадков обычно наблюдается дымка, при ухудшении видимости до 1 км и менее - туман. В сухую погоду видимость может ухудшаться дымом, пылью или мглою.
  • Явления - указаны атмосферные явления, наблюдавшиеся в срок или в последний час перед сроком; фигурными скобками обозначены явления, наблюдавшиеся между сроками (за 1-3 часа до срока); квадратными скобками обозначены град или гололедные отложения с указанием их диаметра в мм.
  • Облачность - указаны через наклонную черту общая и нижняя облачность в баллах и высота нижней границы облаков в метрах; квадратными скобками обозначены формы облаков: Ci - перистые, Cs - перисто-слоистые, Cc - перисто-кучевые, Ac - высококучевые, As - высокослоистые, Sc - слоисто-кучевые, Ns - слоисто-дождевые, Cu - кучевые, Cb - кучево-дождевые. Подробнее классификацию облаков см. в Атласе облаков (PDF).
  • T - Температура воздуха - температура, измеренная на высоте 2 м над землей.
  • Td - Температура точки росы - температура, при понижении до которой содержащийся в воздухе водяной пар достигнет насыщения.
  • f - Относительная влажность воздуха - влажноcть воздуха, измеренная на высоте 2 м над землей.
  • Te - Эффективная температура - температура, которую ощущает одетый по сезону человек в тени. Характеристика душности погоды. При расчете учитывается влияние влажности воздуха и скорости ветра на теплоощущения человека.
  • Tes - Эффективная температура на солнце - температура, которую ощущает человек, с поправкой на солнечный нагрев. Характеристика знойности погоды. Зависит от высоты солнца над горизонтом, облачности и скорости ветра. Ночью, в пасмурную погоду, а также при ветре 12 м/с и более поправка равна нулю.
  • P - Атмосферное давление - приведенное к уровню моря атмосферное давление.
  • Po - Атмосферное давление - измеренное на уровне метеостанции атмосферное давление.
  • Tmin - Минимальная температура - минимум температуры воздуха на высоте 2 м над землей.
  • Tmax - Максимальная температура - максимум температуры воздуха на высоте 2 м над землей.
  • R - Количество осадков - Количество выпавших осадков за период времени, мм. При наведении курсора мыши на число - период времени, за который выпало указанное количество осадков.
  • R24 - Количество осадков - Количество выпавших осадков за 24 часа, мм.
  • S - Снежный покров - Высота снежного покрова, см. При наведении курсора мыши на число - состояние снежного покрова и степень покрытия местности в баллах.